Location: Poughquag
(41.6090°N, 73.6820°W)
Time: 12:49:00
(UTC-04:00)

Tiros 1 - Pass Details

Date: 06 June 2020
Orbit: 630 x 664 km, 48.4° (Epoch: 06 July)

Event Time Altitude Azimuth Distance (km) Brightness Sun altitude
Rises 14:32:11 0° 292° (WNW) 2,972 10.8 62.1°
Reaches altitude 10° 14:34:40 10° 300° (WNW) 2,055 10.1 61.7°
Maximum altitude 14:39:07 39° 10° (N) 967 8.4 61.0°
Drops below altitude 10° 14:43:31 10° 80° (E) 2,031 9.5 60.3°
Sets 14:45:58 0° 88° (E) 2,933 10.3 59.9°
